CFG6TH EDDN-EDDF

Flight info

Callsign CFG6TH
Flight time 0h 28m
Altitude 18000
Route SUKAD1G/28 SUKAD DCT PIWAW T159 SPESA SPESA5B
Aircraft A321/M-SDE3FGHIRWY/LB1

Departure

Time 2026-05-05 19:49
Airport Nuremberg Airport (EDDN)

Arrival

Time 2026-05-05 20:18
Airport Frankfurt Main Airport (EDDF)
Time Latitude Longitude Altitude Speed Heading
2026-05-05 19:19 49.49532 11.07661 1023 ft 0 kts 188°
2026-05-05 19:39 49.49538 11.07662 1026 ft 3 kts 188°
2026-05-05 19:40 49.49562 11.07668 1026 ft 3 kts 188°
2026-05-05 19:40 49.49581 11.07674 1026 ft 3 kts 217°
2026-05-05 19:40 49.49591 11.07699 1024 ft 3 kts 271°
2026-05-05 19:40 49.49590 11.07726 1027 ft 1 kts 278°
2026-05-05 19:41 49.49589 11.07731 1027 ft 0 kts 278°
2026-05-05 19:44 49.49591 11.07728 1027 ft 1 kts 291°
2026-05-05 19:44 49.49600 11.07739 1027 ft 4 kts 63°
2026-05-05 19:44 49.49582 11.07836 1026 ft 16 kts 102°
2026-05-05 19:44 49.49563 11.08010 1028 ft 16 kts 97°
2026-05-05 19:45 49.49548 11.08169 1026 ft 14 kts 99°
2026-05-05 19:45 49.49536 11.08280 1029 ft 7 kts 95°
2026-05-05 19:45 49.49559 11.08342 1031 ft 8 kts 27°
2026-05-05 19:45 49.49608 11.08384 1033 ft 9 kts 52°
2026-05-05 19:46 49.49608 11.08510 1035 ft 16 kts 98°
2026-05-05 19:46 49.49589 11.08677 1036 ft 15 kts 99°
2026-05-05 19:46 49.49575 11.08827 1038 ft 13 kts 97°
2026-05-05 19:46 49.49564 11.08953 1039 ft 11 kts 98°
2026-05-05 19:47 49.49551 11.09087 1041 ft 14 kts 99°
2026-05-05 19:47 49.49536 11.09235 1043 ft 13 kts 99°
2026-05-05 19:47 49.49549 11.09393 1047 ft 17 kts 54°
2026-05-05 19:47 49.49620 11.09544 1051 ft 16 kts 45°
2026-05-05 19:48 49.49696 11.09516 1052 ft 14 kts 293°
2026-05-05 19:48 49.49720 11.09324 1049 ft 24 kts 277°
2026-05-05 19:48 49.49756 11.08947 1042 ft 60 kts 279°
2026-05-05 19:48 49.49851 11.07989 1030 ft 121 kts 278°
2026-05-05 19:49 49.50000 11.06455 1038 ft 165 kts 278°
2026-05-05 19:49 49.50107 11.05273 1428 ft 161 kts 277°
2026-05-05 19:49 49.50309 11.03035 2362 ft 159 kts 278°
2026-05-05 19:49 49.50478 11.01338 2826 ft 166 kts 278°
2026-05-05 19:50 49.50672 10.99517 3189 ft 178 kts 278°
2026-05-05 19:50 49.50884 10.97592 3566 ft 188 kts 278°
2026-05-05 19:50 49.51099 10.95543 3876 ft 201 kts 277°
2026-05-05 19:50 49.51325 10.93308 4071 ft 227 kts 277°
2026-05-05 19:51 49.51566 10.90811 4561 ft 244 kts 276°
2026-05-05 19:51 49.51808 10.88159 5132 ft 257 kts 276°
2026-05-05 19:51 49.52050 10.85396 5892 ft 261 kts 275°
2026-05-05 19:51 49.52288 10.82643 6765 ft 259 kts 275°
2026-05-05 19:52 49.52537 10.79888 7552 ft 261 kts 276°
2026-05-05 19:52 49.52808 10.77112 8323 ft 264 kts 276°
2026-05-05 19:52 49.53086 10.74305 9107 ft 267 kts 276°
2026-05-05 19:52 49.53365 10.71459 9839 ft 271 kts 276°
2026-05-05 19:53 49.53647 10.68548 10321 ft 284 kts 276°
2026-05-05 19:53 49.53942 10.65420 10490 ft 306 kts 276°
2026-05-05 19:53 49.54251 10.62106 10663 ft 327 kts 276°
2026-05-05 19:53 49.54582 10.58587 11159 ft 336 kts 276°
2026-05-05 19:54 49.55039 10.55032 11795 ft 342 kts 284°
2026-05-05 19:54 49.55962 10.51625 12456 ft 349 kts 296°
2026-05-05 19:54 49.57318 10.48489 13120 ft 355 kts 303°
2026-05-05 19:54 49.58770 10.45390 13772 ft 359 kts 303°
2026-05-05 19:55 49.60231 10.42245 14357 ft 362 kts 302°
2026-05-05 19:55 49.61702 10.39063 14913 ft 367 kts 302°
2026-05-05 19:55 49.63191 10.35838 15461 ft 372 kts 303°
2026-05-05 19:55 49.64698 10.32571 15992 ft 376 kts 303°
2026-05-05 19:56 49.66205 10.29303 16534 ft 380 kts 303°
2026-05-05 19:56 49.67745 10.25959 17070 ft 385 kts 303°
2026-05-05 19:56 49.69302 10.22577 17599 ft 389 kts 303°
2026-05-05 19:56 49.70876 10.19151 17793 ft 392 kts 303°
2026-05-05 19:57 49.72474 10.15669 17837 ft 401 kts 303°
2026-05-05 19:57 49.73544 10.13338 17813 ft 403 kts 303°
2026-05-05 19:57 49.75716 10.08613 17836 ft 403 kts 303°
2026-05-05 19:57 49.77200 10.05012 17815 ft 390 kts 295°
2026-05-05 19:58 49.78405 10.01342 17622 ft 378 kts 294°
2026-05-05 19:58 49.79567 9.97733 17231 ft 373 kts 294°
2026-05-05 19:58 49.80709 9.94205 16846 ft 370 kts 294°
2026-05-05 19:58 49.81857 9.90657 16452 ft 367 kts 294°
2026-05-05 19:59 49.82994 9.87140 16069 ft 364 kts 294°
2026-05-05 19:59 49.84119 9.83649 15689 ft 361 kts 294°
2026-05-05 19:59 49.85233 9.80185 15313 ft 358 kts 294°
2026-05-05 19:59 49.86337 9.76745 14940 ft 355 kts 294°
2026-05-05 20:00 49.87430 9.73333 14577 ft 352 kts 294°
2026-05-05 20:00 49.88516 9.69944 14204 ft 350 kts 294°
2026-05-05 20:00 49.89592 9.66579 13857 ft 347 kts 294°
2026-05-05 20:00 49.90645 9.63283 13495 ft 344 kts 294°
2026-05-05 20:01 49.91716 9.59927 13098 ft 342 kts 294°
2026-05-05 20:01 49.92754 9.56677 12708 ft 340 kts 294°
2026-05-05 20:01 49.93812 9.53392 12320 ft 339 kts 294°
2026-05-05 20:01 49.94866 9.50125 11941 ft 338 kts 294°
2026-05-05 20:02 49.95915 9.46876 11546 ft 336 kts 294°
2026-05-05 20:02 49.96959 9.43645 11176 ft 334 kts 294°
2026-05-05 20:02 49.97996 9.40437 10806 ft 332 kts 294°
2026-05-05 20:02 49.99029 9.37243 10437 ft 330 kts 294°
2026-05-05 20:03 50.00054 9.34075 10075 ft 326 kts 294°
2026-05-05 20:03 50.01068 9.30947 9712 ft 322 kts 294°
2026-05-05 20:03 50.02067 9.27871 9315 ft 315 kts 294°
2026-05-05 20:03 50.03039 9.24879 8908 ft 305 kts 294°
2026-05-05 20:04 50.03972 9.22008 8537 ft 300 kts 294°
2026-05-05 20:04 50.04906 9.19123 8152 ft 297 kts 294°
2026-05-05 20:04 50.05828 9.16268 7777 ft 295 kts 294°
2026-05-05 20:04 50.06744 9.13425 7394 ft 292 kts 294°
2026-05-05 20:05 50.07649 9.10608 7024 ft 290 kts 294°
2026-05-05 20:05 50.08546 9.07806 6799 ft 288 kts 294°
2026-05-05 20:05 50.09439 9.05003 6818 ft 290 kts 294°
2026-05-05 20:05 50.10335 9.02194 6817 ft 290 kts 294°
2026-05-05 20:06 50.11232 8.99379 6819 ft 290 kts 294°
2026-05-05 20:06 50.12126 8.96571 6815 ft 286 kts 293°
2026-05-05 20:06 50.12606 8.93735 6810 ft 265 kts 265°
2026-05-05 20:06 50.12035 8.91115 6828 ft 261 kts 236°
2026-05-05 20:07 50.11051 8.88734 6783 ft 264 kts 244°
2026-05-05 20:07 50.10418 8.86064 6324 ft 261 kts 252°
2026-05-05 20:07 50.09862 8.83428 5803 ft 251 kts 250°
2026-05-05 20:07 50.09283 8.80922 5294 ft 241 kts 249°
2026-05-05 20:08 50.08896 8.79288 4951 ft 235 kts 249°
2026-05-05 20:08 50.07708 8.76649 4283 ft 226 kts 212°
2026-05-05 20:08 50.06215 8.75988 4010 ft 225 kts 179°
2026-05-05 20:08 50.04735 8.76776 3995 ft 232 kts 146°
2026-05-05 20:09 50.03970 8.77992 4000 ft 236 kts 129°
2026-05-05 20:09 50.03066 8.80100 3999 ft 237 kts 124°
2026-05-05 20:09 50.02199 8.82284 3998 ft 238 kts 124°
2026-05-05 20:09 50.01340 8.84490 3997 ft 239 kts 121°
2026-05-05 20:10 50.00924 8.86985 3997 ft 243 kts 89°
2026-05-05 20:10 50.01397 8.89463 3990 ft 236 kts 56°
2026-05-05 20:10 50.02520 8.91212 3993 ft 227 kts 37°
2026-05-05 20:10 50.03785 8.92665 3994 ft 225 kts 34°
2026-05-05 20:11 50.05131 8.93869 3991 ft 222 kts 13°
2026-05-05 20:11 50.06647 8.93929 3998 ft 218 kts 348°
2026-05-05 20:11 50.08136 8.93478 3997 ft 218 kts 344°
2026-05-05 20:11 50.09609 8.92964 3993 ft 217 kts 344°
2026-05-05 20:12 50.11076 8.92436 3993 ft 216 kts 341°
2026-05-05 20:12 50.12342 8.91315 3989 ft 209 kts 306°
2026-05-05 20:12 50.12791 8.89269 3993 ft 202 kts 262°
2026-05-05 20:12 50.12164 8.87385 3998 ft 202 kts 221°
2026-05-05 20:13 50.11057 8.86020 3969 ft 203 kts 224°
2026-05-05 20:13 50.10218 8.84306 3801 ft 203 kts 241°
2026-05-05 20:13 50.09631 8.82318 3563 ft 201 kts 248°
2026-05-05 20:13 50.09130 8.80280 3300 ft 201 kts 249°
2026-05-05 20:14 50.08646 8.78239 3038 ft 201 kts 249°
2026-05-05 20:14 50.08174 8.76242 2786 ft 191 kts 249°
2026-05-05 20:14 50.07732 8.74371 2483 ft 178 kts 249°
2026-05-05 20:14 50.07326 8.72655 2309 ft 161 kts 249°
2026-05-05 20:15 50.06940 8.71056 2120 ft 154 kts 249°
2026-05-05 20:15 50.06577 8.69537 1919 ft 145 kts 249°
2026-05-05 20:15 50.06244 8.68087 1678 ft 141 kts 248°
2026-05-05 20:15 50.05910 8.66671 1476 ft 139 kts 249°
2026-05-05 20:16 50.05576 8.65261 1290 ft 140 kts 249°
2026-05-05 20:16 50.05243 8.63850 1133 ft 141 kts 250°
2026-05-05 20:16 50.04907 8.62397 931 ft 143 kts 249°
2026-05-05 20:16 50.04560 8.60946 760 ft 144 kts 250°
2026-05-05 20:17 50.04212 8.59501 559 ft 143 kts 247°
2026-05-05 20:17 50.03863 8.58059 383 ft 142 kts 249°
2026-05-05 20:17 50.03538 8.56727 355 ft 114 kts 250°
2026-05-05 20:17 50.03325 8.55828 348 ft 64 kts 250°
2026-05-05 20:18 50.03209 8.55319 348 ft 44 kts 250°
2026-05-05 20:18 50.03178 8.54948 349 ft 32 kts 277°
2026-05-05 20:18 50.03200 8.54769 339 ft 10 kts 279°
2026-05-05 20:18 50.03207 8.54703 337 ft 0 kts 279°
2026-05-05 20:20 50.03210 8.54678 337 ft 8 kts 279°
2026-05-05 20:20 50.03227 8.54588 337 ft 9 kts 295°
2026-05-05 20:21 50.03266 8.54517 335 ft 9 kts 322°
2026-05-05 20:21 50.03337 8.54466 338 ft 12 kts 339°
2026-05-05 20:21 50.03374 8.54445 337 ft 0 kts 340°
2026-05-05 20:22 50.03375 8.54444 337 ft 2 kts 340°
2026-05-05 20:22 50.03381 8.54441 337 ft 0 kts 340°
2026-05-05 20:23 50.03406 8.54427 337 ft 11 kts 340°
2026-05-05 20:23 50.03478 8.54386 347 ft 10 kts 340°
2026-05-05 20:23 50.03543 8.54349 347 ft 10 kts 340°
2026-05-05 20:23 50.03614 8.54311 345 ft 10 kts 349°
2026-05-05 20:24 50.03665 8.54352 352 ft 8 kts 59°
2026-05-05 20:24 50.03692 8.54457 346 ft 11 kts 71°
2026-05-05 20:24 50.03713 8.54552 355 ft 8 kts 70°
2026-05-05 20:24 50.03734 8.54640 354 ft 14 kts 70°
2026-05-05 20:25 50.03780 8.54834 354 ft 21 kts 69°
2026-05-05 20:25 50.03830 8.55043 353 ft 20 kts 70°
2026-05-05 20:25 50.03879 8.55240 351 ft 19 kts 69°
2026-05-05 20:25 50.03922 8.55417 352 ft 15 kts 65°
2026-05-05 20:26 50.04004 8.55447 353 ft 12 kts 341°
2026-05-05 20:26 50.04076 8.55414 359 ft 10 kts 354°
2026-05-05 20:26 50.04124 8.55458 356 ft 8 kts 60°
2026-05-05 20:26 50.04110 8.55513 358 ft 5 kts 151°
2026-05-05 20:27 50.04089 8.55522 358 ft 2 kts 169°
2026-05-05 20:27 50.04076 8.55526 354 ft 2 kts 169°
2026-05-05 20:27 50.04066 8.55529 358 ft 1 kts 168°
2026-05-05 20:27 50.04062 8.55532 360 ft 1 kts 163°
2026-05-05 20:28 50.04050 8.55540 357 ft 2 kts 158°
2026-05-05 20:28 50.04042 8.55545 354 ft 0 kts 159°